www.pogodaiklimat.ru

Погода и климат >> Архив погоды >> Филиппины >> Сангли Пойнт


ПОГОДА в Сангли Пойнт

  • Прогноз погоды в Сангли Пойнт
  • Монитор погоды в Сангли Пойнт

АРХИВ ПОГОДЫ в Сангли Пойнт

Время (UTC), дата Ветер
(напр.,м/с)
 
Видим.   Явления Облачность Т
(С)
Тd
(С)
f
(%)
Тe
(С)
Тes
(С)
Комфортность P
(гПа)
Po
(гПа)
Тmin
(С)
Tmax
(С)
R
(мм)
R24
(мм)
S
(см)
21 11.09 СЗ 2 8000 м 8/3 540 м
[Sc diur, vesp Ac As]
+25.8 +24.6 93 +36 +36 очень
душно
1005.4 1005.1
00 12.09 Ю 1 10 км осадки на расстоянии {туман} 9/3 540 м
[Sc diur, vesp Ac As]
+26.5 +24.8 90 +38 +39 очень
душно
1006.3 1006.0 +25.8 2
03 12.09 Ю 1 8000 м слаб. дождь 10/4 540 м
[Sc As trans]
+26.7 +25.9 95 +40 +45 очень
душно
1007.1 1006.8 1
06 12.09 З 1 10 км в посл. час дождь 10/3 540 м
[Sc diur, vesp Ac As]
+26.2 +24.9 93 +37 +41 очень
душно
1006.1 1005.8 7
09 12.09 З 3 10 км мгла {туман} 10/3 540 м
[Sc diur, vesp Ac As]
+26.9 +24.4 86 +38 +38 очень
душно
1003.9 1003.6
12 12.09 С 2 8000 м 9/3 540 м
[Sc diur, vesp Ac As]
+26.5 +24.2 87 +37 +37 очень
душно
1004.3 1004.0 +27.0
15 12.09 С 2 8000 м 9/3 540 м
[Sc diur, vesp Ac As]
+26.5 +24.1 87 +37 +37 очень
душно
1005.2 1004.9
18 12.09 Ю 1 8000 м 9/3 540 м
[Sc diur, vesp Ac As]
+25.7 +23.8 89 +35 +35 очень
душно
1004.2 1003.9
21 12.09 СВ 1 8000 м 9/3 540 м
[Sc diur, vesp Ac As]
+25.5 +23.9 91 +35 +35 очень
душно
1003.8 1003.5
00 13.09 СВ 2 10 км мгла {туман} 6/3 540 м
[Sc diur, vesp Ac cuf Ci fib]
+27.2 +24.9 87 +39 +42 очень
душно
1005.2 1004.9 +25.5 7
03 13.09 СЗ 3 10 км мгла {туман} 9/3 540 м
[Sc diur, vesp Ac cuf Cs]
+30.1 +26.2 80 +46 +52 опасность
перегрева
1006.1 1005.8
06 13.09 З 2 12 км мгла {туман} 9/3 540 м
[Sc diur, vesp Ac As]
+31.1 +24.9 70 +45 +49 опасность
перегрева
1004.2 1003.9
09 13.09 Ю 1 12 км мгла {туман} 9/3 540 м
[Sc diur, vesp Ac As]
+30.1 +24.8 73 +43 +43 опасность
перегрева
1003.8 1003.5
12 13.09 Ю 2 8000 м 9/3 540 м
[Sc diur, vesp Ac As]
+29.0 +24.2 75 +40 +40 очень
душно
1006.3 1006.0 +31.5
15 13.09 Ю 2 8000 м 9/3 540 м
[Sc diur, vesp Ac trans]
+28.2 +23.8 77 +39 +39 очень
душно
1007.7 1007.4
18 13.09 З 1 8000 м 8/3 540 м
[Sc diur, vesp Ac trans]
+27.5 +23.6 79 +37 +37 очень
душно
1006.6 1006.3
21 13.09 Ю 1 8000 м 8/3 540 м
[Sc diur, vesp Ac trans]
+26.7 +23.6 83 +36 +36 очень
душно
1006.3 1006.0
00 14.09 ЮВ 1 12 км мгла {туман} 6/3 540 м
[Sc diur, vesp Ac trans Ci fib]
+27.2 +25.5 90 +40 +43 очень
душно
1007.4 1007.1 +26.7
03 14.09 З 2 12 км мгла {туман} 6/3 540 м
[Cu med, cong Ac trans]
+31.1 +26.2 75 +47 +57 опасность
перегрева
1007.7 1007.4
06 14.09 ЮВ 2
{10}
9000 м в посл. час гроза {туман} 10/3 500 м
[Cb cap Ac As]
+27.7 +24.6 83 +39 +42 очень
душно
1006.8 1006.5
09 14.09 ЮЗ 4 10 км мгла {туман} 9/3 540 м
[Cu med, cong Ac As]
+28.8 +25.1 80 +42 +42 опасность
перегрева
1007.1 1006.8
12 14.09 Ю 2 9000 м {дождь} 9/3 540 м
[Sc diur, vesp Ac As]
+26.5 +24.2 87 +37 +37 очень
душно
1008.6 1008.3 +31.8 1
15 14.09 ЮЗ 2 8000 м осадки на расстоянии 9/3 540 м
[Sc diur, vesp Ac As]
+25.5 +24.3 93 +35 +35 очень
душно
1009.3 1009.0
18 14.09 Ю 2 8000 м в посл. час дождь 10/3 540 м
[Sc diur, vesp Ac As]
+24.8 +24.0 95 +34 +34 очень
душно
1008.3 1008.0 14
21 14.09 Ю 2 8000 м 9/3 540 м
[Sc diur, vesp Ac As]
+24.9 +24.1 95 +34 +34 очень
душно
1007.6 1007.3
00 15.09 Ю 2 10 км в посл. час дождь {туман} 9/3 540 м
[Sc diur, vesp Ac As]
+25.5 +24.3 93 +35 +37 очень
душно
1009.0 1008.7 +24.8 18
03 15.09 Ю 4 9000 м дождь {туман} 10/4 540 м
[Sc As op]
+26.0 +24.0 89 +36 +38 очень
душно
1009.2 1008.9 12
06 15.09 ЮЗ 3 10 км мгла {дождь, туман} 10/3 540 м
[Sc diur, vesp Ac As]
+28.8 +24.3 77 +40 +43 очень
душно
1006.5 1006.2 15
09 15.09 ЮЗ 4 10 км мгла {туман} 9/3 540 м
[Sc diur, vesp Ac As]
+27.8 +23.8 79 +38 +38 очень
душно
1006.3 1006.0
12 15.09 ЮЗ 11
{11}
8000 м слаб. дождь 10/3 540 м
[Sc diur, vesp Ac As]
+26.6 +24.9 90 +38 +38 очень
душно
1007.3 1007.0 +30.5 4
15 15.09 ЮЗ 5 8000 м слаб. дождь 10/3 540 м
[Sc diur, vesp Ac As]
+25.1 +24.4 96 +35 +35 очень
душно
1008.3 1008.0 6
18 15.09 ЮЗ 4 8000 м слаб. дождь 10/3 540 м
[Sc diur, vesp Ac As]
+25.2 +24.1 94 +35 +35 очень
душно
1007.4 1007.1 9
21 15.09 Ю 3 8000 м слаб. дождь 10/4 540 м
[Sc As op]
+24.2 +23.4 95 +32 +32 очень
душно
1007.1 1006.8 23
00 16.09 ЮЗ 4 8000 м слаб. дождь 10/4 500 м
[Sc As op]
+25.1 +24.2 95 +35 +35 очень
душно
1007.3 1007.0 +24.2 64
03 16.09 ЮЗ 4 9000 м слаб. дождь 10/4 540 м
[Sc diur, vesp Ac As]
+27.1 +25.4 90 +39 +42 очень
душно
1007.1 1006.8 5
06 16.09 ЮЗ 2 9000 м слаб. дождь 10/3 540 м
[Sc diur, vesp Ac As]
+26.2 +25.2 94 +38 +41 очень
душно
1005.2 1004.9 16
09 16.09 Ю 2 8000 м дождь 10/4 540 м
[Sc As op]
+25.6 +25.0 96 +36 +37 очень
душно
1004.3 1004.0 20
12 16.09 СВ 2 8000 м слаб. дождь 10/4 540 м
[Sc Ac As]
+26.1 +25.2 95 +38 +38 очень
душно
1006.0 1005.7 +27.8 27
15 16.09 Ю 1 8000 м {дождь} 10/3 540 м
[Sc diur, vesp Ac As]
+26.0 +25.2 95 +37 +37 очень
душно
1006.2 1005.9 0.8
18 16.09 Ю 3
{10}
8000 м слаб. дождь 10/3 540 м
[Sc diur, vesp Ac As]
+25.3 +24.5 95 +35 +35 очень
душно
1005.3 1005.0 8
21 16.09 В 1 8000 м {дождь} 9/3 540 м
[Sc diur, vesp Ac As]
+25.4 +24.3 94 +35 +35 очень
душно
1005.3 1005.0 2
00 17.09 Ю 3 9000 м слаб. дождь 10/3 540 м
[Sc diur, vesp Ac As]
+25.5 +25.1 98 +37 +38 очень
душно
1006.4 1006.1 +25.1 58
03 17.09 Ю 3 14 км мгла {дождь, туман} 8/3 540 м
[Sc diur, vesp Ac As]
+29.6 +25.3 78 +43 +49 опасность
перегрева
1006.6 1006.3 1
06 17.09 Ю 3 14 км мгла {дождь, туман} 8/3 540 м
[Sc diur, vesp Ac As]
+29.6 +24.9 76 +42 +47 опасность
перегрева
1005.3 1005.0 1
09 17.09 Ю 3 14 км мгла {туман} 8/3 540 м
[Sc diur, vesp Ac As]
+28.4 +23.6 75 +39 +39 очень
душно
1004.7 1004.4
12 17.09 Ю 2 8000 м 8/3 540 м
[Sc diur, vesp Ac As]
+27.0 +23.5 81 +37 +37 очень
душно
1005.6 1005.3 +29.6
15 17.09 Ю 3 8000 м в посл. час дождь 9/3 540 м
[Sc diur, vesp Ac As]
+26.0 +23.7 87 +35 +35 очень
душно
1007.1 1006.8 2
18 17.09 Ю 3 8000 м осадки на расстоянии 9/3 540 м
[Sc diur, vesp Ac As]
+25.8 +23.6 88 +35 +35 очень
душно
1006.1 1005.8 4
21 17.09 ЮЗ 4 8000 м в посл. час дождь 9/3 540 м
[Sc diur, vesp Ac As]
+26.3 +24.0 87 +36 +36 очень
душно
1005.5 1005.2 0.2
00 18.09 Ю 3 10 км мгла {дождь} 6/3 540 м
[Sc diur, vesp Ac trans Ci fib]
+28.3 +24.6 80 +40 +43 очень
душно
1007.3 1007.0 +25.5 5
03 18.09 ЮЗ 5
{10}
14 км в посл. час дождь {туман} 8/3 540 м
[Sc diur, vesp Ac As]
+28.6 +24.9 80 +41 +45 опасность
перегрева
1007.6 1007.3 3
06 18.09 ЮЗ 6 12 км дождь {туман} 10/3 540 м
[Sc diur, vesp Ac As]
+25.9 +24.2 90 +36 +37 очень
душно
1006.3 1006.0 6
09 18.09 ЮЗ 4
{9}
12 км в посл. час дождь {туман} 9/3 540 м
[Sc diur, vesp Ac As]
+26.9 +24.4 86 +38 +38 очень
душно
1006.4 1006.1 3
12 18.09 ЮЗ 5
{9}
8000 м осадки на расстоянии {туман} 9/3 540 м
[Sc diur, vesp Ac As]
+25.7 +24.0 90 +35 +35 очень
душно
1008.2 1007.9 +29.9 6
15 18.09 ЮЗ 4
{8}
8000 м осадки на расстоянии 9/3 540 м
[Sc diur, vesp Ac As]
+26.8 +23.8 84 +37 +37 очень
душно
1008.7 1008.4 2
18 18.09 ЮЗ 4
{8}
8000 м в посл. час дождь 9/3 540 м
[Sc diur, vesp Ac As]
+26.4 +24.4 89 +37 +37 очень
душно
1008.2 1007.9 2

 

Местоположение метеостанции Сангли Пойнт (Филиппины): широта 14.50 долгота 120.91 высота над уровнем моря 2 м.

В архиве по умолчанию представлена погода в Сангли Пойнт за последнюю неделю. Архивные данные за месяц целиком и за предыдущие месяцы, начиная с января 2011 года, Вы можете получить, выбрав интересующий диапазон дат из раскрывающегося списка и нажав кнопку "Ввод!".


*Определитесь, кто Вы:
робот инопланетянин человек

Внимание! Время в таблицах - всемирное. Для получения местного времени необходимо прибавить поправку, которая равна 8 ч.

Смотрите также архив погоды в соседних городах и на ближайших метеорологических станциях:

Погода в Аэропорту Ninoy Aquino (Филиппины) (10 км)
Погода в Маниле (Филиппины) (12 км)
Погода в Научном саду (Филиппины) (18 км)
Погода в Танае (Филиппины) (47 км)
Погода на Амбулонге (Филиппины) (49 км)
Погода в Куби Пойнт (Филиппины) (77 км)
Погода на Базе ВВС Clark (Филиппины) (83 км)
Погода в Инфанте (Филиппины) (84 км)
Погода в Тайябасе (Филиппины) (89 км)
Погода в Кабанатуане (Филиппины) (109 км)

Пояснения к столбцам:

Ветер - указаны скорость ветра в м/с - средняя за 10 мин, порывы в срок и между сроками (в фигурных скобках) и направление, откуда дует ветер: С - северный, СВ - северо-восточный, В - восточный, ЮВ - юго-восточный, Ю - южный, ЮЗ - юго-западный, З - западный, СЗ - северо-западный.
Видимость - горизонтальная дальность видимости в метрах или километрах. При видимости от 1 до 10 км при отсутствии осадков обычно наблюдается дымка, при ухудшении видимости до 1 км и менее - туман. В сухую погоду видимость может ухудшаться дымом, пылью или мглою.
Явления - указаны атмосферные явления, наблюдавшиеся в срок или в последний час перед сроком; фигурными скобками обозначены явления, наблюдавшиеся между сроками (за 1-3 часа до срока); квадратными скобками обозначены град или гололедные отложения с указанием их диаметра в мм.
Облачность - указаны через наклонную черту общая и нижняя облачность в баллах и высота нижней границы облаков в метрах; квадратными скобками обозначены формы облаков: Ci - перистые, Cs - перисто-слоистые, Cc - перисто-кучевые, Ac - высококучевые, As - высокослоистые, Sc - слоисто-кучевые, Ns - слоисто-дождевые, Cu - кучевые, Cb - кучево-дождевые. Подробнее классификацию облаков см. в Атласе облаков (PDF).
T - Температура воздуха - температура, измеренная на высоте 2 м над землей.
Td - Температура точки росы - температура, при понижении до которой содержащийся в воздухе водяной пар достигнет насыщения.
f - Относительная влажность воздуха - влажноcть воздуха, измеренная на высоте 2 м над землей.
Te - Эффективная температура - температура, которую ощущает одетый по сезону человек в тени. Характеристика душности погоды. При расчете учитывается влияние влажности воздуха и скорости ветра на теплоощущения человека.
Tes - Эффективная температура на солнце - температура, которую ощущает человек, с поправкой на солнечный нагрев. Характеристика знойности погоды. Зависит от высоты солнца над горизонтом, облачности и скорости ветра. Ночью, в пасмурную погоду, а также при ветре 12 м/с и более поправка равна нулю.
P - Атмосферное давление - приведенное к уровню моря атмосферное давление.
Po - Атмосферное давление - измеренное на уровне метеостанции атмосферное давление.
Tmin - Минимальная температура - минимум температуры воздуха на высоте 2 м над землей.
Tmax - Максимальная температура - максимум температуры воздуха на высоте 2 м над землей.
R - Количество осадков - Количество выпавших осадков за период времени, мм. При наведении курсора мыши на число - период времени, за который выпало указанное количество осадков.
R24 - Количество осадков - Количество выпавших осадков за 24 часа, мм.
S - Снежный покров - Высота снежного покрова, см. При наведении курсора мыши на число - состояние снежного покрова и степень покрытия местности в баллах.